Flag for Germany Weather past 2 weeks in Minden, North Rhine-Westphalia, Germany

Now
54 °F

Passing clouds.


Feels Like: 50 °F
Forecast: 51 / 58 °F
Wind: 10 mph from West

Location: Bueckeburg

Current Time: Sep 5, 2015 at 5:57:21 AM

Latest Report: Sep 5, 2015 at 4:20 AM


Visibility: N/A

Pressure: 29.83 "Hg

Humidity: 94%

Dew point: 52 °F

Location of MindenLocation

Historic Weather in Minden — Graph

°F

Minden temperature yesterday

Maximum temperature yesterday: 63 °F (at 1:02 PM)
Minimum temperature yesterday: 54 °F (at 12:20 AM)
Average temperature yesterday: 57 °F

Past Weeks' High & Low Weather Summary

 TemperatureHumidityPressure
High91 °F (Aug 31, 4:20 PM)100% (Aug 27, 7:20 PM)30.27 "Hg (Aug 27, 7:20 PM)
Low52 °F (Aug 29, 6:20 AM)30% (Aug 31, 4:20 PM)29.56 "Hg (Aug 24, 6:20 PM)
Average65 °F71%29.94 "Hg
* Reported Aug 21 4:20 AM — Sep 5 4:20 AM, Minden, Weather by CustomWeather, © 2015

Note: Actual official high and low records may vary slightly from our data, if they occured in-between our weather recording intervals... More about our weather records

Advertising

Minden weather history for previous 24 hours

 ConditionsComfort  
Time TempWeatherWind HumidityBarometerVisibility
4:20 AM
Sat, Sep 5
54 °FPassing clouds.10 mph94%29.83 "HgN/A
3:20 AM55 °FPassing clouds.13 mph94%29.83 "HgN/A
2:20 AM55 °FPassing clouds.13 mph94%29.83 "HgN/A
1:20 AM55 °FPassing clouds.13 mph88%29.80 "HgN/A
12:20 AM55 °FLight rain. Passing clouds.16 mph88%29.83 "HgN/A
11:20 PM
Fri, Sep 4
57 °FLight rain. Passing clouds.21 mph77%29.83 "HgN/A
10:20 PM57 °FPassing clouds.13 mph72%29.83 "HgN/A
9:20 PM57 °FPassing clouds.15 mph72%29.83 "HgN/A
8:20 PM59 °FPartly sunny.15 mph63%29.86 "HgN/A
7:20 PM61 °FScattered clouds.13 mph63%29.83 "HgN/A
6:20 PM61 °FScattered clouds.14 mph63%29.86 "HgN/A
5:20 PM61 °FScattered clouds.16 mph63%29.86 "HgN/A
4:20 PM61 °FPartly sunny.17 mph59%29.86 "HgN/A
3:20 PM61 °FPartly sunny.14 mph59%29.89 "HgN/A
2:20 PM63 °FPartly sunny.16 mph56%29.89 "HgN/A
1:20 PM63 °FScattered clouds.16 mph56%29.89 "HgN/A
1:02 PM63 °FScattered clouds.16 mph52%29.89 "HgN/A
12:20 PM61 °FScattered clouds.15 mph63%29.92 "HgN/A
11:20 AM59 °FPassing clouds.12 mph63%29.92 "HgN/A
10:20 AM57 °FPassing clouds.15 mph72%29.92 "HgN/A
9:20 AM55 °FScattered clouds.12 mph82%29.92 "HgN/A
8:20 AM54 °FPassing clouds.8 mph88%29.92 "HgN/A
7:20 AM54 °FPassing clouds.8 mph88%29.92 "HgN/A
6:20 AM54 °FPassing clouds.7 mph88%29.92 "HgN/A
5:20 AM54 °FLight rain. Passing clouds.8 mph88%29.92 "Hg6 mi
Weather by CustomWeather, © 2015

See weather overviewHow to use our weather pages